Theta_e
322 323 323 322 323 326 327 328 328 333 331 329 332 330 328 329 331 326 330 342 341 340 341 342 344 342 344 344 349 352 348 349 348 345 347 341 339 344 343 343 344 340 338 336 337 339 339 337 339 340 337 337 336 335 333 332 335 338 339 339 339 339 339 339 340 340 341 342 342 343 342 341 341 341 340 335 329 330 338 340 338 340 340 340 340 339 337 333 332 331 331 333 332 333 332 332 334
323 323 323 321 324 325 328 330 331 335 335 331 330 330 330 330 328 326 340 354 346 341 343 345 346 345 345 344 347 346 343 343 343 342 342 340 342 343 343 344 342 342 338 334 336 337 337 335 338 340 338 337 337 336 335 334 337 339 339 339 339 338 339 340 341 341 342 342 342 342 341 341 341 339 333 329 331 337 340 339 339 339 339 340 340 340 338 336 335 333 332 334 332 333 333 332 334
321 323 322 322 324 325 331 330 331 333 331 329 329 332 328 326 326 329 343 350 344 342 342 346 348 346 348 350 347 343 344 342 340 341 341 342 343 341 344 344 342 343 337 333 334 334 335 336 340 341 340 339 338 337 336 336 337 338 339 338 338 339 339 340 341 342 342 342 342 341 341 341 337 331 328 333 338 340 339 339 340 339 339 339 339 338 337 337 337 334 333 333 333 334 334 333 333
319 322 321 323 324 328 338 333 334 331 325 327 327 331 330 324 327 335 342 344 340 342 345 350 351 343 348 354 346 344 346 343 339 340 342 342 343 343 344 343 344 342 337 333 333 335 338 339 341 341 340 339 337 337 337 337 337 337 337 336 338 340 340 341 341 341 342 342 341 342 340 334 328 328 334 339 340 339 340 340 340 340 339 337 335 335 334 335 336 336 335 334 335 335 335 335 334
319 322 320 323 327 329 334 329 332 328 324 331 328 329 331 324 331 340 340 340 340 343 347 350 351 343 344 348 347 348 344 341 338 337 341 341 342 344 343 343 344 341 337 334 332 335 338 338 338 339 339 338 338 338 338 337 337 337 336 336 339 340 340 342 341 342 342 342 342 340 332 326 328 334 340 340 339 339 340 340 340 338 336 333 332 332 331 331 333 336 336 334 335 336 336 336 335
319 322 321 321 321 324 327 324 327 326 325 332 330 330 332 328 334 340 338 340 344 348 345 346 349 344 348 348 344 345 339 339 340 337 339 341 342 343 343 343 342 340 337 335 334 333 333 333 333 335 336 337 338 338 338 338 338 337 337 337 338 339 340 341 342 342 342 343 342 334 329 331 336 339 341 340 339 340 340 340 338 335 332 331 332 332 330 329 330 333 334 332 334 335 335 336 335
318 322 325 324 321 322 329 328 326 329 325 327 331 331 332 332 334 338 342 344 347 348 343 345 346 345 350 345 341 341 336 338 338 338 339 340 341 342 343 342 341 339 337 335 337 335 332 331 331 335 337 338 338 338 339 338 338 337 336 336 337 339 340 341 342 342 343 344 337 332 334 337 339 340 340 339 339 340 339 339 336 334 333 333 333 331 330 330 330 331 331 332 333 334 334 334 333
319 321 325 328 327 325 330 327 326 329 323 323 329 332 334 335 336 339 344 345 347 347 344 346 344 346 348 342 346 341 334 337 337 338 339 339 341 341 343 341 340 339 337 335 335 338 338 336 334 336 338 339 339 339 339 339 339 336 335 336 337 340 340 341 341 342 342 337 331 334 338 338 340 340 339 339 339 339 339 339 336 336 335 331 332 333 331 330 331 331 331 332 333 333 332 331 330
316 320 322 325 326 326 327 324 323 326 325 327 329 335 336 334 337 340 343 345 346 347 347 346 342 344 345 343 349 339 334 339 337 339 338 339 341 341 342 341 340 337 338 335 334 339 340 340 338 338 338 339 340 339 339 339 338 336 335 335 338 340 340 342 341 340 334 326 328 336 337 336 338 339 339 339 338 339 339 339 337 336 334 329 329 331 331 329 330 331 331 331 332 331 330 329 328
316 319 321 325 326 323 323 324 327 329 330 331 330 335 334 333 338 341 346 347 346 349 347 344 342 344 345 345 347 338 336 340 338 340 339 339 340 341 341 341 340 336 337 335 335 338 339 340 338 338 338 338 339 339 339 338 337 336 335 336 338 339 340 341 337 332 325 323 331 336 336 335 337 339 338 338 338 339 339 338 337 336 333 329 326 326 326 326 329 330 330 329 328 328 327 327 327
320 319 322 325 326 322 320 324 330 332 331 328 328 334 333 333 339 343 346 346 347 349 345 340 342 344 346 349 347 336 336 340 339 340 340 340 340 341 341 340 339 336 336 336 336 337 338 338 338 338 338 338 338 339 339 338 337 336 336 337 339 341 340 337 332 328 327 329 335 337 336 335 336 337 338 339 339 339 338 338 337 335 334 330 325 324 323 323 326 328 328 326 325 326 327 327 326
319 319 325 327 325 322 322 323 327 332 332 328 327 332 333 333 339 348 348 346 347 346 344 340 341 342 349 359 347 334 336 339 339 340 340 339 339 340 340 339 339 337 337 337 337 337 337 337 338 339 338 339 338 338 338 337 337 336 336 337 340 341 337 333 330 332 332 333 337 337 337 336 336 337 338 338 338 339 339 337 336 335 334 331 325 325 324 322 323 325 325 324 325 327 327 327 325
320 321 325 322 321 321 319 321 325 331 333 333 329 328 333 335 339 348 348 345 345 346 344 340 340 340 347 355 342 333 337 339 339 340 339 339 339 339 339 338 338 340 337 336 337 337 337 338 339 338 338 339 338 338 338 337 338 337 336 338 340 338 332 330 331 333 334 334 336 337 337 337 337 336 336 337 338 339 339 337 337 335 333 329 325 325 326 324 322 322 323 324 326 327 327 326 325
320 322 324 318 318 321 320 319 324 328 331 334 330 328 333 336 338 340 344 348 346 345 341 337 339 343 343 343 341 337 336 338 339 339 339 339 340 339 339 338 339 340 338 337 337 337 338 338 338 337 337 338 338 338 338 338 338 337 337 339 339 334 331 332 331 333 334 334 336 336 337 337 337 337 336 337 338 338 338 337 336 335 332 327 325 325 326 325 323 322 323 323 325 327 326 326 325
317 325 327 322 319 321 320 318 323 328 332 334 327 328 334 335 336 335 340 348 346 342 339 337 338 341 341 340 344 340 334 337 338 339 339 339 339 340 340 338 339 339 338 340 339 338 341 339 338 338 338 338 338 339 338 338 338 339 338 338 338 333 333 333 331 332 333 333 336 337 337 337 336 337 337 337 338 338 337 335 333 333 330 326 325 326 326 326 325 323 322 322 324 325 326 325 324
319 326 326 322 320 320 320 319 321 325 331 333 326 329 335 332 333 337 336 338 342 342 343 343 341 340 338 339 341 335 333 337 338 339 338 338 339 339 339 338 339 339 339 342 340 341 342 341 340 340 340 339 339 339 338 339 339 339 338 338 338 335 334 333 329 329 332 332 335 337 336 336 336 336 338 337 338 337 336 333 330 329 328 326 325 326 326 326 326 325 323 322 323 324 325 325 324
318 325 324 321 320 319 322 322 320 324 330 330 326 331 338 333 335 342 337 338 344 345 346 344 339 339 336 337 336 333 335 337 338 338 337 337 337 337 339 338 340 341 341 342 341 341 342 341 340 340 340 340 340 340 339 340 339 339 338 339 339 335 335 335 330 330 334 334 335 336 337 336 333 336 337 336 337 337 335 332 329 329 329 328 326 327 327 327 326 326 324 323 323 322 323 325 324
318 325 322 319 321 320 324 325 322 325 327 327 326 331 339 336 339 344 339 343 348 344 346 344 338 337 336 335 334 334 336 336 338 338 337 337 336 337 337 338 340 341 340 342 342 341 341 341 341 340 339 339 341 341 340 340 340 339 338 339 339 335 336 336 331 330 333 333 334 334 334 332 330 334 336 335 337 337 335 333 331 330 329 328 327 328 326 326 325 325 325 324 323 321 322 324 324
321 325 320 319 324 321 322 325 325 324 324 328 327 329 336 336 339 341 338 346 349 344 345 345 343 340 335 335 334 335 336 336 338 337 338 337 336 337 336 337 339 339 340 341 342 341 341 340 340 339 338 339 341 340 339 340 339 339 339 338 338 336 337 336 332 329 328 328 331 330 330 329 330 332 332 333 335 336 336 334 332 330 329 328 327 327 325 325 324 325 325 324 324 321 321 323 325
321 321 319 322 321 319 319 321 323 323 324 328 328 328 332 335 337 338 341 349 350 349 348 345 349 347 337 335 335 335 336 336 337 337 338 337 337 336 336 337 338 338 339 339 340 341 341 339 339 339 338 340 340 340 340 340 339 340 339 338 338 338 338 337 334 331 326 325 327 327 327 327 329 330 331 332 334 335 336 334 333 330 329 327 327 326 324 324 324 324 324 325 325 321 320 323 325
319 318 320 322 317 318 319 318 321 321 322 326 328 330 331 334 334 337 344 347 349 351 348 344 349 350 339 335 335 335 337 336 337 337 338 338 337 336 335 336 337 337 337 339 340 339 340 338 338 339 339 339 340 340 340 340 340 340 339 338 338 338 339 337 336 334 328 326 326 325 325 325 327 330 331 332 333 333 331 330 330 329 329 327 326 325 324 324 324 324 324 325 325 323 322 323 325
318 318 320 319 317 318 318 318 321 321 322 326 329 330 331 331 330 338 345 343 349 351 344 344 346 345 337 335 335 335 336 336 337 337 337 338 336 336 335 336 336 336 336 338 339 339 339 338 338 338 338 339 340 340 340 340 340 339 339 338 337 337 339 338 337 336 332 329 328 326 325 324 326 329 331 331 331 330 327 327 326 326 328 327 325 324 323 324 323 324 324 325 325 325 324 325 326
317 318 319 317 316 317 317 319 321 323 323 326 331 330 331 334 329 338 343 339 346 346 338 341 340 338 335 335 335 334 335 335 336 337 336 337 336 335 335 335 335 335 337 337 338 338 338 338 339 338 337 338 339 340 340 340 339 339 338 337 337 337 338 337 337 337 333 332 330 328 327 325 324 326 329 329 329 329 328 327 324 322 328 328 324 324 323 323 324 324 324 325 326 326 325 325 326
315 316 317 316 316 317 318 318 321 325 325 325 330 329 330 335 333 338 343 339 345 345 339 341 337 334 335 334 335 334 334 335 335 336 335 336 335 335 335 336 336 336 336 337 338 338 337 339 339 338 338 338 339 340 340 340 339 339 338 337 337 337 337 337 337 336 335 333 332 330 330 329 326 326 329 330 330 331 329 328 324 321 326 327 324 324 323 324 324 325 325 326 328 328 327 326 326
315 316 317 316 318 320 318 316 318 322 324 324 328 329 329 332 334 339 343 338 345 347 342 343 339 335 336 335 336 334 334 335 335 335 334 335 335 335 335 336 337 337 336 336 337 337 337 338 339 339 338 338 338 339 340 340 339 338 338 338 337 336 337 337 336 337 336 334 334 333 332 332 331 330 333 335 335 335 334 331 325 320 325 328 324 324 323 324 325 327 328 330 332 331 329 328 329
317 318 318 317 318 319 317 316 318 320 322 326 328 330 329 330 332 337 344 342 344 345 343 342 340 338 337 336 335 334 334 334 334 334 333 334 335 334 334 335 335 337 337 336 336 337 337 337 338 338 338 338 338 339 339 340 339 338 338 337 338 337 336 337 336 336 336 335 335 334 334 334 334 334 335 336 336 337 336 334 328 321 323 327 324 323 324 324 326 329 330 331 331 330 330 330 331
318 317 316 316 316 315 315 315 317 318 321 326 327 329 331 332 331 332 341 343 342 347 347 340 337 339 337 335 335 334 334 333 333 333 332 333 334 334 334 334 334 336 337 336 337 337 336 336 336 338 338 338 338 338 339 339 339 339 338 337 338 337 335 335 335 335 335 335 336 336 336 336 335 335 335 336 336 336 336 336 332 322 322 327 324 323 323 323 326 329 330 329 329 330 331 331 330
316 315 315 317 316 315 315 314 317 318 320 325 328 331 332 334 333 333 340 342 342 351 353 339 335 337 334 335 334 334 334 333 333 331 331 332 332 334 334 334 333 334 336 336 337 336 335 336 336 338 339 339 339 338 338 338 338 338 338 337 337 336 334 335 334 334 335 335 336 337 337 337 337 337 336 336 336 336 336 336 334 324 321 327 324 323 324 323 325 327 327 328 329 331 331 331 330
314 314 314 318 319 317 315 314 317 319 322 327 329 329 331 333 336 339 343 342 342 348 353 341 335 336 334 335 335 334 335 334 333 331 331 332 332 334 333 333 333 334 335 336 337 336 336 337 337 339 339 339 339 338 338 338 337 337 337 336 337 336 335 335 335 335 336 336 337 337 337 337 337 337 336 337 336 337 336 336 335 326 320 325 326 323 324 323 324 325 326 328 331 332 332 331 331
314 313 314 317 318 319 315 315 319 319 322 329 326 322 327 332 334 341 342 341 343 346 349 341 336 336 334 336 336 335 335 334 334 331 332 332 332 333 333 334 334 334 335 335 336 335 336 338 338 339 339 339 339 339 338 338 337 337 337 336 336 336 335 336 336 336 336 336 336 335 334 334 334 336 335 336 336 336 336 335 335 330 323 323 325 325 324 324 323 324 326 328 331 332 332 332 332
316 313 315 315 313 319 318 318 321 319 323 329 323 318 324 325 330 343 342 339 345 346 345 342 338 338 335 336 336 336 335 334 334 332 332 332 332 333 333 333 334 334 335 334 335 335 335 337 338 339 338 339 338 338 337 337 338 338 337 337 336 336 335 336 336 336 335 334 333 333 332 332 333 334 334 335 335 336 337 335 335 334 330 325 324 325 324 324 324 324 325 328 331 331 332 333 332
319 311 315 318 312 316 318 318 321 321 327 328 321 319 323 320 326 344 343 338 343 343 343 342 340 339 337 337 336 336 335 333 333 333 333 332 332 333 333 334 333 334 335 334 335 334 335 336 338 339 338 338 338 338 338 337 338 338 337 337 336 335 335 335 335 334 333 332 332 333 333 333 333 334 333 333 335 335 335 335 335 335 334 330 328 328 326 324 324 324 325 328 331 331 332 333 333
325 315 314 319 314 314 315 316 318 323 332 329 323 324 327 325 324 335 340 339 340 342 342 342 340 340 338 338 336 337 336 336 334 333 333 333 332 333 334 334 334 334 335 335 335 334 334 336 338 338 338 339 338 338 339 338 337 337 336 336 335 334 333 334 333 333 332 332 332 333 333 333 333 333 333 333 333 333 333 334 336 336 336 335 334 333 331 328 325 325 327 329 331 332 334 334 334
327 325 318 316 314 313 313 315 315 321 333 331 328 327 325 327 329 331 337 340 339 340 341 342 341 340 339 338 337 338 337 338 337 333 333 333 333 333 334 335 335 335 335 335 336 335 335 336 336 337 338 338 338 338 339 338 336 335 334 333 332 332 332 332 332 333 332 332 332 332 333 333 334 333 333 333 333 332 333 335 336 335 335 334 334 334 333 331 329 328 329 330 332 334 335 335 334
318 321 317 313 314 312 312 314 315 320 328 330 330 328 324 325 332 335 335 337 339 339 339 340 340 340 339 338 338 338 338 338 337 334 333 334 333 333 333 335 335 335 335 335 335 336 335 336 336 336 337 338 337 338 337 336 334 333 332 332 332 332 332 331 331 332 332 332 332 332 333 334 334 334 334 335 333 332 333 334 334 334 334 333 333 332 331 331 330 329 329 330 333 335 334 335 335
313 313 313 313 312 312 313 313 315 318 323 329 330 328 326 324 329 336 334 335 338 337 336 338 340 340 339 339 339 338 339 339 336 334 335 334 334 334 333 334 335 335 335 335 335 336 336 336 336 336 336 336 336 336 336 334 332 331 331 332 332 331 331 330 329 331 332 332 332 333 333 334 335 334 334 335 334 333 333 333 333 334 334 333 332 332 331 331 330 330 330 330 333 335 335 335 336
313 312 312 313 311 311 313 313 313 317 322 328 328 326 327 323 325 334 334 335 336 335 336 338 339 339 339 340 339 339 340 339 335 334 335 334 334 334 333 334 334 335 335 335 335 335 336 336 336 335 335 335 335 335 335 333 331 330 329 329 328 328 328 328 328 329 330 332 333 332 332 333 334 334 334 335 335 333 333 333 333 334 333 333 333 332 332 333 332 331 331 333 334 335 336 336 337
312 313 312 312 311 312 313 312 313 316 319 323 324 326 326 322 327 335 334 336 336 335 335 335 336 337 338 339 340 340 339 337 336 335 334 334 334 333 333 334 334 334 334 334 334 334 335 336 336 335 335 335 335 335 334 332 330 329 327 326 325 327 328 327 326 327 327 328 329 329 330 331 333 334 334 335 335 334 334 334 334 333 333 333 333 332 332 333 333 333 333 334 335 335 336 337 337
313 312 311 311 312 313 313 314 313 314 319 324 324 325 324 321 328 337 336 336 336 333 334 334 333 334 336 338 339 339 339 338 339 338 334 333 334 333 333 333 333 334 334 333 334 334 335 335 336 335 335 335 335 334 333 330 329 328 327 327 327 328 329 327 327 328 328 327 327 327 327 328 331 334 335 335 336 335 336 335 335 334 333 333 333 332 332 333 333 333 333 335 336 337 337 337 337
313 312 312 312 313 312 312 315 315 314 318 323 321 322 322 319 324 332 332 332 333 333 333 333 333 333 333 335 337 338 339 340 339 339 336 333 332 332 332 332 333 333 333 333 333 334 334 335 335 335 335 334 334 333 331 329 328 329 329 329 330 331 331 331 330 330 330 330 329 328 327 328 330 333 335 335 336 336 336 337 336 335 333 333 333 333 333 333 334 334 335 336 336 335 335 335 336
316 314 312 313 312 312 313 314 315 316 317 317 315 316 320 320 321 324 326 328 330 332 334 335 333 333 332 333 335 336 338 338 338 339 337 333 331 332 331 332 333 333 333 333 333 333 334 334 334 334 334 333 333 332 329 328 329 330 329 330 331 332 333 333 333 333 333 332 331 330 329 329 329 332 334 335 336 336 336 336 336 336 335 334 333 333 333 333 334 334 335 336 335 334 334 336 336
316 315 314 314 314 313 313 313 313 316 317 316 313 312 322 331 325 320 325 330 330 329 333 334 332 332 331 332 333 335 336 336 336 337 337 334 332 331 331 332 332 332 333 333 333 333 333 333 333 333 334 333 333 332 328 328 329 330 331 331 332 333 333 333 333 333 333 333 333 332 331 330 329 331 332 333 334 335 335 336 336 336 336 336 335 335 334 333 334 334 335 335 335 336 336 336 336
314 318 316 314 315 314 313 313 311 314 316 315 313 313 322 331 328 322 326 332 332 328 331 332 331 331 331 330 331 333 335 334 335 336 337 336 332 331 331 331 332 332 333 333 333 333 332 332 332 332 332 332 332 331 328 328 329 331 332 332 332 332 332 332 332 332 332 333 334 333 333 331 330 330 330 331 332 333 334 335 336 336 337 336 336 336 335 335 334 335 334 334 335 336 336 336 336
316 321 318 314 314 313 314 313 311 315 316 316 320 318 315 319 324 325 325 331 334 329 330 330 329 330 330 329 328 330 332 333 334 335 337 337 333 331 331 331 332 333 333 333 332 332 332 332 331 332 331 331 330 329 328 328 328 331 332 332 331 330 332 332 332 332 332 334 335 335 334 332 331 331 330 331 331 333 334 335 336 336 336 336 336 335 335 335 335 335 335 334 335 335 336 337 336
321 321 316 315 315 314 314 311 313 317 314 315 323 317 312 319 329 328 324 328 334 334 332 328 327 328 328 328 328 327 330 332 333 333 336 336 333 332 333 332 333 333 333 333 333 333 332 331 331 331 331 330 330 329 329 329 329 330 331 330 330 329 332 333 333 333 334 335 336 336 336 333 332 331 331 331 332 333 334 334 335 335 336 336 336 336 335 335 335 335 335 335 335 335 335 336 337
320 317 315 317 322 326 321 314 314 317 313 315 320 315 312 321 330 324 319 324 332 335 332 326 326 326 326 328 327 327 328 330 331 332 334 334 333 333 333 333 333 333 333 333 333 333 332 332 331 331 331 330 330 330 330 330 330 331 330 329 328 329 332 334 334 334 334 336 337 337 337 336 334 333 332 332 332 333 334 334 335 335 335 335 336 336 336 335 335 334 334 334 334 335 335 336 336
315 315 314 316 324 328 329 330 321 314 315 317 318 317 312 316 325 324 320 327 332 330 329 329 327 326 325 326 326 326 328 329 331 332 333 332 332 333 333 333 333 332 333 333 333 333 332 332 331 331 331 331 330 330 330 331 330 330 330 328 327 328 331 335 335 335 335 335 336 337 338 338 336 335 333 332 332 333 334 334 334 334 334 335 335 335 335 336 335 335 334 334 334 334 335 336 336
313 319 316 315 322 321 325 334 323 312 316 319 320 319 313 313 324 327 324 328 329 326 329 332 331 329 326 324 325 325 327 329 330 331 333 334 333 333 333 333 333 333 332 332 332 332 332 332 332 331 331 331 331 330 329 329 329 329 328 328 328 328 331 335 335 335 335 335 336 337 337 338 338 336 334 332 332 333 334 334 334 334 334 334 334 335 335 336 336 335 335 334 334 334 334 335 335
314 320 315 313 320 319 319 327 322 316 320 320 318 317 313 314 321 326 326 324 325 325 328 330 330 330 326 324 324 324 326 329 331 332 333 336 336 333 332 332 333 332 333 333 332 332 332 333 332 332 331 331 331 331 329 328 327 328 328 329 329 329 331 335 336 335 335 335 335 337 337 338 338 337 335 332 332 333 334 334 334 335 335 335 334 334 335 335 336 335 334 334 334 334 334 334 334
315 317 316 314 317 316 319 327 322 319 320 318 318 318 316 317 321 327 328 322 322 324 323 323 323 324 325 325 324 323 327 329 330 332 333 335 336 332 332 333 332 333 333 333 333 332 332 332 332 332 332 332 331 330 330 328 328 327 328 329 329 330 333 335 336 335 335 335 336 337 337 337 338 338 336 333 332 333 334 335 336 336 335 335 334 334 334 335 335 335 334 334 333 334 334 334 334
318 319 319 317 321 319 321 326 320 318 321 318 316 318 319 320 322 328 330 328 328 327 327 326 322 321 321 323 324 325 329 331 330 332 333 334 334 332 332 333 333 333 333 333 333 333 333 332 332 332 332 332 331 331 330 329 328 328 328 329 330 331 333 335 336 335 334 335 336 337 337 338 338 338 337 335 334 335 335 335 336 336 335 334 334 334 334 335 335 335 335 334 334 333 334 334 335
320 321 317 314 322 321 319 324 323 320 321 320 319 321 326 324 323 330 333 331 333 333 333 333 330 327 323 324 327 327 329 331 331 332 333 334 332 331 332 332 333 333 333 334 334 333 334 333 333 333 332 332 332 331 331 329 329 329 329 330 331 333 335 336 335 334 333 335 337 338 338 338 338 338 339 337 337 336 336 336 337 336 335 334 334 334 334 335 335 335 336 335 334 334 334 335 335
320 316 317 317 318 317 318 322 325 321 319 324 323 321 326 323 322 335 337 330 334 337 337 336 332 331 329 329 329 328 329 330 332 332 332 334 333 331 332 332 333 333 333 334 334 334 335 334 334 334 333 333 332 332 332 331 331 331 331 332 333 334 335 335 334 333 334 336 338 339 338 337 337 338 339 339 338 338 337 337 337 336 335 334 334 335 335 335 336 336 336 336 335 334 334 335 336
320 316 320 319 315 320 323 320 322 324 322 326 324 318 321 321 324 337 335 326 333 339 340 338 331 331 334 332 329 329 328 329 331 332 332 334 333 331 332 332 332 333 333 334 334 334 335 334 334 334 333 334 333 333 332 332 332 332 332 333 333 333 334 333 333 334 335 338 339 339 337 336 335 337 339 340 339 339 338 337 337 337 336 335 335 335 335 335 336 336 336 336 336 336 335 336 336
316 316 320 318 316 325 326 317 319 322 321 326 329 325 323 322 327 335 329 328 337 335 337 336 332 335 336 332 329 329 329 330 332 334 334 334 334 331 331 332 332 333 334 334 334 334 334 334 334 334 334 335 334 334 334 334 334 333 334 334 334 334 334 334 334 336 337 339 339 338 337 336 336 336 338 340 339 339 339 338 338 337 338 337 336 335 335 335 335 335 336 336 336 336 336 337 337
319 317 318 320 320 322 322 320 322 321 322 327 327 324 325 325 330 334 327 332 339 335 337 337 334 337 333 329 330 329 330 332 333 333 334 334 333 331 331 332 333 334 334 334 334 334 334 335 335 335 334 334 335 335 335 335 334 335 335 335 335 335 335 335 336 337 339 339 339 339 337 337 336 336 337 339 340 340 339 338 337 337 338 338 337 337 336 336 336 336 336 336 336 336 337 337 336
322 320 318 319 320 320 319 319 320 320 323 327 323 322 330 334 332 333 330 332 336 335 337 335 333 332 329 328 330 330 330 332 332 333 333 334 333 330 330 332 332 333 334 333 334 334 334 334 334 334 334 334 335 334 335 335 335 335 335 335 335 335 335 336 337 339 339 339 339 339 338 338 338 337 337 338 340 340 339 339 337 336 337 337 337 337 337 336 337 336 337 337 337 337 337 337 336
320 322 321 319 318 318 317 320 324 322 321 326 325 321 329 337 332 330 329 329 330 329 329 330 330 328 327 329 330 331 331 330 332 332 332 334 333 329 329 332 331 332 332 333 333 333 334 334 334 335 335 335 335 335 335 335 335 335 335 335 335 336 337 338 339 339 339 339 339 339 338 338 338 337 338 338 339 339 339 339 338 337 337 336 336 336 336 336 336 337 337 337 337 337 337 337 336
Wind_Speed
5 5 5 6 5 2 1 3 2 2 2 1 2 1 3 4 2 4 4 2 2 1 1 1 1 2 2 1 3 3 2 4 4 4 3 3 4 9 12 11 12 18 17 17 17 16 15 14 14 14 15 16 15 14 14 14 13 13 13 12 12 12 14 16 17 17 17 17 17 16 16 16 14 13 11 11 13 16 16 13 13 14 14 13 14 14 15 15 16 17 17 17 17 18 18 18 17
4 4 4 4 4 2 1 3 3 3 4 2 3 3 3 3 4 4 3 3 3 5 3 4 4 3 4 4 2 2 2 1 1 2 2 4 7 11 13 14 16 20 21 20 18 17 16 14 15 16 16 16 15 15 15 15 13 13 14 13 12 12 13 15 15 16 17 17 17 17 16 14 13 11 11 13 15 16 15 13 14 14 13 13 12 13 14 14 14 16 16 16 17 17 17 17 17
5 4 5 3 2 3 1 4 2 1 4 2 3 4 1 2 4 5 6 7 7 7 3 2 3 3 4 4 3 1 2 3 0 1 2 6 7 10 14 15 18 21 22 21 19 17 15 14 14 15 16 16 15 15 16 15 14 13 13 13 13 12 12 14 15 15 17 17 17 16 15 13 11 12 15 16 15 14 14 14 14 13 13 13 12 11 12 12 12 14 14 15 16 15 15 15 15
5 5 6 2 2 4 3 3 2 4 1 2 3 5 2 3 4 3 4 6 7 4 2 2 2 2 3 1 2 0 2 3 2 2 2 6 10 14 16 15 18 21 22 20 19 18 15 14 14 15 16 16 15 16 16 15 14 14 13 13 13 13 12 14 15 16 17 17 15 14 13 11 13 16 17 15 14 14 14 14 14 13 12 11 11 10 11 11 11 12 13 14 14 13 13 12 13
5 4 5 3 3 1 3 2 1 3 2 3 1 6 4 4 5 5 4 5 4 0 2 3 1 1 3 1 0 1 3 3 3 3 2 6 13 18 16 15 19 21 22 20 20 19 17 16 16 16 16 16 17 16 17 16 15 15 14 13 13 13 13 14 15 15 16 15 13 12 13 14 17 18 16 14 15 15 14 14 14 13 12 11 10 11 10 10 11 11 11 13 14 12 12 11 10
4 3 5 6 3 1 2 0 1 1 4 4 2 6 5 3 8 6 3 4 4 3 2 2 2 2 1 1 1 2 3 1 1 2 3 7 12 15 15 16 18 21 22 21 20 20 19 18 18 18 18 17 17 16 16 16 15 15 15 13 13 12 12 14 15 14 14 14 12 13 16 17 17 16 15 15 15 14 15 14 13 13 11 10 11 11 10 9 11 11 11 12 13 12 11 10 9
4 2 4 5 2 2 3 2 3 3 4 4 4 4 2 5 7 5 4 2 4 4 1 2 4 4 1 2 1 2 1 1 1 2 6 9 11 12 15 16 18 21 21 20 19 19 19 20 20 20 20 19 18 17 16 16 15 15 14 13 12 12 12 13 14 13 13 12 13 15 17 16 14 14 15 15 14 14 15 14 13 12 11 11 11 11 10 10 10 11 12 12 13 12 11 11 10
4 1 1 4 1 3 3 1 3 3 2 3 3 4 5 9 9 7 7 3 1 2 2 3 4 3 3 1 1 2 1 2 2 4 8 11 12 13 16 17 18 20 20 19 18 17 17 19 21 22 21 19 18 18 16 15 15 14 13 13 12 12 13 13 13 13 12 11 14 17 16 15 13 14 15 14 14 14 14 13 12 12 11 11 12 11 10 10 11 12 12 13 13 12 11 11 9
4 2 0 3 2 2 2 3 4 3 3 4 2 3 4 6 8 8 7 4 2 3 3 4 5 2 3 1 2 3 2 0 1 2 7 11 13 14 16 16 17 20 20 19 18 17 16 16 19 20 20 19 18 17 16 15 14 14 13 12 12 12 12 12 12 12 11 12 16 17 16 14 13 14 14 13 12 13 14 13 12 12 10 11 11 11 11 11 12 13 13 13 12 12 11 10 8
3 3 1 2 2 1 3 3 3 3 4 4 3 3 3 3 4 6 6 4 3 3 2 4 4 2 2 2 3 2 1 2 3 4 7 10 11 14 16 15 16 19 20 18 17 16 15 15 16 18 19 18 18 17 15 14 14 14 13 12 11 11 11 10 11 11 11 14 17 16 14 12 12 13 13 12 11 12 13 12 12 12 10 10 10 10 11 12 13 13 13 12 12 12 11 9 8
2 3 2 3 3 0 2 3 4 4 4 3 3 4 4 3 2 3 2 2 3 1 1 4 1 3 2 2 3 1 3 3 4 6 6 7 9 12 15 14 15 17 18 17 16 15 15 15 15 16 17 17 18 17 15 14 13 13 12 11 11 11 11 9 10 11 12 14 16 13 11 11 11 12 12 11 10 10 12 12 12 11 10 9 10 10 11 12 12 13 12 12 12 11 10 9 7
2 3 4 4 2 2 3 2 4 5 5 2 2 3 4 4 3 5 4 3 2 1 1 3 2 1 2 3 2 1 3 4 5 7 5 5 8 11 13 12 13 16 16 16 15 14 14 15 15 14 15 16 16 16 15 14 13 12 11 11 12 11 10 10 10 12 13 15 15 12 10 10 11 12 11 10 10 10 11 12 12 11 9 9 10 9 10 11 11 12 12 12 11 10 9 8 7
3 1 4 1 3 2 2 2 4 3 5 2 3 3 4 4 5 6 6 2 0 2 4 4 1 2 1 3 1 0 4 5 7 8 5 5 8 10 10 9 11 14 15 14 13 13 14 14 14 14 14 14 15 15 15 14 13 12 12 13 13 11 10 10 11 12 14 16 15 12 10 10 11 11 10 9 10 11 11 11 11 9 9 9 10 9 9 10 10 11 11 11 10 9 8 7 7
2 3 4 0 1 1 3 1 3 1 4 5 2 3 4 2 5 5 5 2 4 4 3 1 3 1 1 3 2 1 5 7 8 10 5 5 8 10 8 8 11 14 15 12 12 14 15 14 14 14 13 14 14 14 14 14 14 13 14 15 15 13 11 11 11 12 14 16 14 13 11 9 9 9 9 10 11 11 10 11 10 8 9 10 9 9 9 9 9 10 10 10 9 9 8 7 6
2 2 4 1 1 1 3 2 2 3 4 5 3 5 3 2 3 4 4 5 6 3 1 1 2 2 1 2 3 2 8 12 10 11 8 6 8 9 8 10 12 14 14 12 13 15 15 14 14 14 14 14 14 15 15 15 15 14 15 16 17 16 14 12 12 12 14 15 13 12 10 8 8 8 9 10 10 10 10 10 9 7 8 10 9 8 8 8 8 8 9 9 9 9 8 7 6
3 3 5 1 2 2 3 3 3 2 5 5 2 4 5 3 3 4 4 2 1 2 2 0 1 1 3 3 3 2 13 16 12 12 10 7 8 8 8 11 13 13 12 12 13 14 13 14 14 14 13 13 13 14 15 15 15 15 16 17 17 17 15 12 12 13 14 14 12 11 9 8 8 8 9 9 9 9 10 10 8 7 8 9 9 8 7 7 6 6 7 7 8 8 8 7 6
3 4 3 1 2 2 3 3 4 3 5 4 3 3 7 2 1 1 2 3 2 1 2 1 0 1 2 1 0 6 15 15 12 12 10 9 9 9 10 13 14 12 12 12 13 13 12 13 12 12 12 12 13 14 15 15 15 15 15 16 16 16 16 13 11 12 13 13 12 11 10 8 8 9 9 9 8 8 9 9 8 7 8 9 8 7 5 4 5 5 5 6 6 7 8 7 6
3 4 2 2 3 4 5 6 6 4 3 4 5 6 8 6 4 1 1 3 2 1 1 1 1 2 2 1 5 10 14 13 12 12 11 10 8 9 10 13 14 13 13 12 13 13 12 12 11 12 12 12 12 13 15 15 17 18 16 17 17 17 16 15 12 11 12 13 12 11 11 9 9 10 10 8 8 7 8 9 8 7 8 9 8 6 4 3 3 4 5 5 5 7 9 8 7
3 3 1 4 5 5 5 6 5 4 4 4 4 5 7 7 6 4 2 2 3 1 3 2 2 2 5 5 8 11 13 14 13 12 12 11 10 9 10 12 15 15 15 13 14 13 12 12 10 11 12 12 13 13 14 14 17 19 18 18 18 17 16 15 13 12 12 13 12 11 10 10 9 9 9 8 9 8 7 8 8 8 9 9 8 6 4 3 3 4 5 6 6 8 11 10 8
2 3 2 6 6 5 5 6 7 7 4 3 4 4 5 4 5 4 3 2 1 3 5 2 5 5 7 7 10 11 13 15 15 12 11 11 11 10 10 12 15 18 18 16 15 14 13 13 11 12 12 13 14 14 15 15 17 18 18 19 18 17 17 16 14 13 12 12 11 9 9 9 10 8 7 7 8 9 9 8 8 9 10 10 8 6 4 4 4 5 5 6 7 10 13 11 9
2 4 5 7 4 3 8 8 8 8 4 5 4 3 4 3 4 4 5 4 3 6 7 7 8 7 9 9 10 12 12 14 14 12 11 10 10 11 11 12 14 16 18 18 17 15 14 13 13 12 12 13 14 15 16 16 17 19 19 19 18 17 17 16 15 14 12 11 10 9 8 9 9 9 8 8 9 10 10 9 9 11 11 11 9 6 5 5 5 5 5 6 7 10 12 11 9
1 4 7 7 5 4 9 5 6 5 3 4 5 5 5 3 3 4 8 5 6 6 7 11 10 6 10 11 11 11 12 12 12 12 13 12 10 11 13 14 14 13 16 18 18 17 15 14 13 13 13 14 15 15 16 16 17 19 20 20 19 18 18 18 16 14 13 11 11 10 9 9 9 10 10 10 11 11 11 10 10 12 12 12 9 7 6 6 5 4 4 5 6 9 11 11 8
2 5 5 5 4 5 7 2 4 5 5 5 7 5 4 5 3 4 8 8 6 5 6 8 6 6 11 12 12 12 12 11 11 13 14 14 11 12 15 16 16 15 16 18 18 17 16 15 14 13 13 14 15 15 15 17 18 19 21 21 19 18 18 18 16 13 13 12 12 11 10 10 10 11 12 12 12 11 11 10 9 11 13 12 10 8 7 7 6 5 4 4 5 7 8 9 7
4 5 5 4 6 9 9 6 6 7 8 7 5 4 6 9 6 3 8 10 4 4 2 3 5 9 12 11 11 11 11 10 11 13 14 14 13 13 16 17 18 17 16 16 18 17 15 16 15 14 14 14 16 16 16 17 19 19 19 19 18 17 17 17 15 14 14 13 12 11 11 10 10 11 12 13 12 10 10 10 9 10 14 13 11 9 8 7 6 6 5 4 4 5 6 7 6
5 5 6 3 5 9 9 7 7 7 8 4 5 5 8 9 5 3 9 9 3 3 3 5 6 8 10 10 10 10 9 9 9 11 11 12 13 13 15 16 16 16 15 16 17 16 15 16 16 16 15 15 17 17 17 17 18 18 18 18 17 16 16 15 15 15 14 13 13 12 11 11 12 12 13 12 11 9 8 9 9 10 14 14 12 11 8 7 6 6 6 4 4 4 4 4 5
6 6 5 4 6 8 6 5 7 8 5 5 7 8 4 3 2 2 7 6 2 2 5 5 5 5 7 7 8 8 7 8 8 10 11 11 12 13 14 15 16 17 16 16 18 17 16 16 17 17 15 16 17 18 18 17 18 18 17 17 15 15 15 14 14 15 14 14 13 12 12 12 12 13 13 13 12 10 8 8 9 10 14 15 13 12 9 8 7 6 6 4 3 2 3 4 6
5 4 6 6 8 8 5 5 5 5 4 7 10 8 1 2 0 4 4 4 5 5 5 3 3 4 5 6 6 7 7 8 9 10 10 10 11 13 14 14 15 16 16 17 19 19 18 17 17 17 15 17 18 18 18 18 18 18 18 17 16 15 14 13 14 14 14 13 12 12 13 13 13 13 14 14 13 11 9 9 8 9 14 16 15 13 11 9 8 7 6 4 4 5 6 7 8
3 4 7 8 7 7 5 5 4 3 3 7 8 3 1 4 1 6 4 4 5 6 5 3 4 4 4 6 6 6 7 8 9 10 10 11 13 15 15 15 16 16 16 18 19 19 19 18 17 18 17 17 19 18 18 18 18 18 17 16 16 14 12 12 12 12 12 12 12 12 13 14 14 14 14 15 14 13 11 9 8 10 14 16 16 14 12 10 9 9 7 6 6 6 7 8 8
5 2 4 9 7 7 5 3 3 4 2 5 8 1 3 3 7 5 6 6 5 6 5 4 5 5 5 6 6 6 6 7 9 12 14 14 15 18 18 18 18 17 17 19 20 20 21 19 18 18 19 19 20 19 18 18 17 16 16 15 14 13 12 12 12 12 12 12 12 12 13 14 15 15 15 15 15 13 11 10 9 9 12 16 16 15 13 11 11 10 9 8 7 7 8 7 7
4 1 1 6 7 6 5 2 1 3 2 6 8 1 6 10 11 5 6 8 8 6 6 6 6 5 5 6 5 6 7 7 9 13 16 16 16 18 20 19 18 19 19 19 21 21 21 20 19 19 20 20 20 19 18 17 16 16 15 14 13 13 13 13 13 12 12 12 13 13 13 15 16 15 15 15 15 14 12 11 10 8 9 13 16 15 13 12 12 12 11 9 8 7 7 6 6
3 2 1 3 3 4 7 2 4 3 3 5 5 4 8 12 10 7 7 8 10 9 7 7 6 5 5 5 6 6 6 8 11 14 16 16 17 18 20 20 19 19 19 20 22 21 21 21 21 20 20 20 20 19 18 17 16 16 16 15 14 12 13 13 13 13 13 13 13 13 13 14 15 14 14 15 15 14 13 12 11 9 8 10 13 14 14 14 14 14 13 11 10 9 6 6 7
2 1 3 3 1 4 10 3 6 4 2 2 3 4 8 12 7 8 9 9 10 10 8 8 7 7 6 5 6 5 5 7 10 13 15 16 17 18 19 20 20 20 20 21 22 21 21 22 21 22 21 20 20 19 18 17 16 16 16 15 14 13 14 14 14 14 14 13 13 13 12 13 13 13 13 14 14 13 14 13 12 11 10 9 10 12 13 15 15 15 13 11 10 9 7 8 8
3 1 3 3 2 4 8 4 3 4 2 1 4 3 5 7 5 5 11 11 11 9 8 8 8 7 7 6 5 5 4 5 7 11 15 16 18 19 19 20 21 21 21 21 21 21 22 22 21 22 22 21 20 19 18 18 16 16 15 15 14 14 14 14 14 14 13 12 11 10 10 11 12 12 11 12 12 13 14 14 12 12 12 11 11 11 12 14 14 14 13 10 9 8 7 8 8
4 3 1 3 1 3 5 6 3 3 5 4 7 6 9 8 4 2 9 10 11 10 9 10 9 7 6 5 5 5 5 5 6 10 14 17 18 19 19 19 20 20 20 20 21 21 21 21 21 21 22 22 20 20 19 18 17 15 14 13 12 11 11 10 11 12 11 11 10 9 9 11 12 12 10 10 12 12 12 13 12 12 12 12 13 12 11 12 14 14 12 9 8 7 8 8 7
3 3 2 3 3 3 5 6 2 3 2 5 7 8 16 15 5 3 7 7 9 10 9 8 8 8 6 5 6 5 5 6 7 9 13 17 18 19 19 19 19 19 19 20 21 22 21 21 21 20 19 21 21 20 19 17 15 13 12 11 9 8 8 7 8 8 9 9 9 8 8 9 11 12 10 10 11 11 11 12 11 10 10 11 12 12 11 10 12 13 12 9 7 9 9 7 7
4 3 2 3 5 5 7 8 4 4 2 5 8 10 16 18 9 5 6 6 7 7 6 6 7 7 6 5 6 5 6 8 8 9 13 16 18 19 19 19 19 19 19 20 21 23 23 22 22 20 19 21 21 19 18 16 14 12 11 10 9 8 8 8 7 7 8 9 8 7 7 7 8 10 11 12 11 10 10 11 11 10 10 11 12 12 12 10 10 11 11 10 9 10 9 8 7
2 0 2 4 4 7 9 8 6 4 4 6 9 11 16 17 10 5 5 5 7 8 7 7 8 7 7 7 7 7 8 7 5 8 12 15 17 18 19 20 19 18 19 20 22 24 24 24 23 22 20 20 20 19 18 17 16 14 12 11 10 9 10 11 9 8 8 9 9 7 7 7 7 8 10 12 11 10 10 10 10 10 10 11 12 13 12 10 9 9 10 10 10 10 9 7 7
2 1 3 5 4 8 11 9 8 2 4 5 4 7 15 16 7 3 6 7 11 12 11 11 11 10 7 7 9 9 7 4 4 6 9 13 15 17 19 20 20 20 21 22 23 24 24 24 25 24 22 20 19 19 18 17 16 14 13 12 11 11 12 12 11 10 9 9 10 9 8 7 7 8 8 10 11 10 10 10 10 10 10 11 12 14 14 13 11 10 10 10 10 10 9 7 6
2 1 1 4 3 5 10 9 7 1 5 4 3 6 13 13 5 4 8 10 11 12 14 13 12 11 9 9 10 10 8 6 6 6 8 13 16 17 19 20 22 22 22 23 23 24 25 25 25 25 24 20 18 18 19 17 14 13 13 12 11 10 11 12 11 10 10 10 10 10 10 9 9 9 9 9 10 10 10 9 9 9 9 10 11 12 14 14 13 12 12 12 11 9 7 6 6
3 3 1 5 4 1 5 5 3 0 3 2 3 3 8 8 3 5 10 10 7 7 11 10 8 10 11 10 9 9 10 9 8 7 7 11 15 17 19 21 23 23 22 23 24 25 26 26 26 25 24 22 19 19 19 17 15 14 14 13 10 9 9 10 10 10 10 11 11 11 11 11 11 10 10 10 10 10 10 10 9 8 8 8 9 10 12 13 13 12 12 11 10 8 6 6 7
4 6 5 6 7 5 7 6 5 4 3 1 4 2 6 5 5 8 6 5 7 6 8 10 8 8 7 7 8 9 10 9 9 9 8 9 13 17 20 21 23 24 24 25 26 27 27 27 27 26 25 24 22 21 19 18 18 17 15 14 12 10 9 9 9 9 10 10 12 12 12 12 12 11 11 11 10 11 12 12 11 9 8 8 8 9 11 12 12 11 11 10 10 9 8 7 6
4 5 10 11 10 8 8 6 5 5 5 2 4 0 6 5 5 9 4 3 9 6 7 12 11 8 7 8 10 9 9 9 9 9 8 9 12 16 19 21 23 24 26 27 27 27 27 28 28 27 26 26 25 22 20 20 20 18 16 15 13 11 11 11 10 10 9 9 10 11 12 12 12 12 11 10 10 11 12 13 12 11 10 9 8 8 10 11 12 11 10 10 10 10 8 7 7
3 5 9 9 7 7 8 5 1 1 4 3 2 4 5 6 4 8 3 5 9 5 7 13 10 9 10 10 10 10 9 9 9 9 7 8 12 15 17 22 25 26 28 28 27 27 27 27 27 27 27 27 26 24 22 22 21 19 17 16 14 12 12 12 12 11 10 10 10 10 11 10 11 12 11 11 10 11 12 13 13 12 11 10 9 9 9 10 11 11 10 10 10 10 9 9 8
4 7 3 2 5 7 8 5 4 4 4 4 3 3 3 5 5 6 1 4 8 6 10 12 10 11 12 12 11 11 11 10 10 9 9 9 12 16 19 23 27 28 27 27 26 27 28 28 27 27 27 26 26 25 25 24 23 22 19 17 16 15 15 14 12 12 11 10 10 10 9 9 9 10 11 11 11 11 12 13 13 12 12 11 11 11 10 10 11 11 10 10 10 10 9 9 9
7 8 3 3 4 5 4 5 5 3 2 5 5 1 2 5 6 5 3 2 7 8 12 13 13 14 13 13 13 12 11 11 11 11 11 11 14 20 23 24 26 27 27 27 28 28 27 27 26 26 26 27 26 26 26 25 25 23 21 19 18 17 16 15 13 13 12 11 10 10 9 9 9 10 11 12 12 12 12 12 12 12 12 12 12 12 12 12 12 12 11 10 10 10 10 10 9
6 3 1 2 2 2 1 3 4 1 1 5 5 3 3 5 5 3 2 1 7 9 11 11 12 13 13 13 14 12 9 9 10 11 11 13 18 23 23 22 23 26 27 28 28 28 26 26 26 26 27 27 27 27 27 27 26 24 22 21 20 19 18 17 15 15 14 13 12 12 11 10 10 11 11 12 12 12 12 12 11 11 12 12 12 13 14 14 14 13 11 11 10 11 11 11 10
3 2 2 4 5 4 3 2 3 1 3 6 7 7 5 5 5 3 3 4 7 8 8 9 9 10 12 12 13 12 9 9 10 11 10 13 17 19 19 19 20 23 26 26 26 27 27 27 26 26 27 27 27 28 27 27 26 25 24 24 23 21 20 18 17 17 16 15 14 14 13 12 11 11 11 12 11 11 11 12 12 11 12 12 13 14 14 14 14 12 11 11 11 11 11 11 11
1 2 1 4 6 4 4 4 2 2 6 6 6 5 5 4 6 5 6 6 6 7 8 9 10 11 12 12 12 11 10 9 9 10 9 9 11 13 16 18 19 21 24 25 26 26 27 28 28 27 27 27 27 27 28 28 27 26 26 25 25 23 21 20 19 18 17 17 16 15 15 14 13 12 12 12 11 10 11 12 12 13 13 13 13 14 15 14 13 12 12 12 12 11 11 12 12
4 3 2 1 4 3 3 4 1 3 6 5 3 2 2 6 7 6 8 10 9 9 9 10 10 10 11 11 12 10 9 9 9 10 9 8 8 10 15 18 19 21 24 26 27 26 26 28 28 29 29 29 28 27 28 28 28 28 27 26 25 24 23 22 21 20 19 18 17 16 16 15 14 13 12 12 11 11 11 12 12 13 14 14 14 14 14 13 12 13 12 12 12 11 11 12 12
6 4 4 4 2 1 4 4 2 4 6 4 3 2 2 4 6 7 10 12 10 8 9 10 9 9 9 9 10 8 8 9 9 9 9 9 9 11 15 20 21 23 25 26 28 28 27 27 28 30 31 30 29 28 28 28 28 28 27 26 26 25 25 24 23 22 20 19 18 17 16 14 13 12 12 12 11 11 12 12 12 12 13 13 13 13 13 12 12 12 12 12 11 11 11 10 10
5 4 5 5 4 4 5 4 4 5 5 3 1 2 3 3 5 7 9 9 7 6 8 8 8 9 7 7 7 8 9 10 9 10 11 10 11 14 18 20 22 24 25 27 28 28 28 28 29 30 30 30 29 29 29 29 29 28 27 27 26 26 26 25 23 22 21 20 19 17 16 14 13 11 10 9 10 11 11 12 12 12 11 12 13 13 12 12 11 12 11 11 10 10 9 9 9
3 3 4 2 5 5 4 3 5 3 2 3 2 3 4 4 6 6 4 7 7 6 6 5 7 8 6 6 7 9 9 10 10 10 11 11 12 16 19 20 23 24 25 27 28 28 29 30 30 31 30 30 29 30 30 30 30 29 28 27 27 26 26 25 24 23 21 20 18 17 15 13 13 13 11 10 10 10 10 11 12 12 11 12 12 13 13 13 12 11 11 10 10 10 10 10 9
1 2 2 4 4 6 2 3 1 2 2 5 2 3 5 3 6 6 5 8 8 7 6 3 5 5 5 7 8 8 9 10 11 12 12 12 12 15 19 21 23 23 25 27 29 31 32 31 30 30 29 29 29 30 30 29 29 28 28 27 27 26 26 25 25 23 21 19 17 15 13 14 15 14 13 12 11 11 10 10 11 11 12 12 12 13 13 13 13 12 11 10 10 10 10 11 10
3 2 5 3 2 3 1 2 3 2 4 5 1 4 4 2 4 6 6 8 10 9 8 5 4 3 6 7 7 9 9 10 11 10 10 11 11 15 19 21 23 26 27 29 30 31 31 30 31 30 29 30 30 30 30 29 29 28 28 28 27 27 27 26 25 22 20 18 16 16 17 19 19 15 12 13 13 12 11 11 11 12 12 13 13 13 13 14 13 13 12 10 10 10 11 11 10
3 3 4 3 1 2 1 1 2 2 4 5 3 4 4 4 5 4 4 8 10 10 8 6 6 6 7 8 8 8 7 7 8 8 8 9 10 14 19 21 23 26 27 28 29 28 28 29 29 29 30 31 31 30 30 30 30 29 28 28 27 27 26 25 24 22 19 18 19 20 21 21 19 15 14 14 14 14 12 12 12 12 13 13 14 14 13 14 14 14 13 12 11 11 11 11 11
3 1 1 1 3 4 2 2 3 3 4 3 4 5 3 5 6 6 9 11 10 10 8 7 10 10 8 8 8 7 7 7 8 8 9 9 10 14 20 22 24 26 27 26 25 25 27 27 27 28 28 28 28 29 29 29 29 29 29 28 27 26 25 24 23 21 19 20 22 22 20 20 19 17 16 15 15 15 14 13 13 13 13 13 13 13 14 15 15 15 14 13 12 12 12 11 11
3 2 3 4 2 1 1 1 3 3 3 3 4 5 5 6 5 8 11 11 11 11 10 10 11 10 9 8 7 7 8 8 8 8 9 9 10 13 19 22 23 25 24 23 23 25 25 26 26 27 27 26 26 27 28 28 28 28 28 27 26 26 24 23 22 20 19 21 22 21 19 19 18 18 18 16 16 16 16 15 14 14 14 14 14 14 14 15 16 17 16 15 14 13 13 13 13
2 0 2 4 3 3 3 4 1 1 2 4 3 5 6 5 4 8 10 10 10 10 10 11 10 10 9 7 7 7 7 8 8 8 9 9 9 12 17 19 20 20 21 22 23 24 24 25 26 27 26 27 27 27 28 28 27 27 27 26 26 25 24 23 21 19 19 21 22 21 20 19 18 18 18 18 18 18 17 17 17 16 16 15 16 16 16 16 16 16 16 16 14 14 15 15 15
Wind_Direction
22 1 342 340 349 23 22 59 60 329 66 44 305 255 264 229 262 326 325 356 79 289 271 75 60 125 104 122 194 186 142 166 160 142 198 234 100 109 146 155 146 152 156 159 159 160 159 160 164 158 153 150 148 146 142 139 137 134 129 127 127 129 129 129 130 131 135 139 139 136 135 134 132 129 128 127 122 117 117 123 124 120 118 117 115 115 118 117 112 115 117 114 112 111 113 111 109
8 353 350 341 5 48 255 76 82 336 45 1 300 211 265 312 331 300 219 145 170 221 193 129 116 98 49 34 33 27 8 315 122 136 185 158 121 121 150 165 169 173 170 165 164 165 165 168 166 157 151 146 143 143 140 139 138 135 132 129 129 129 128 130 130 133 139 141 139 137 135 134 134 133 130 126 120 118 123 126 122 118 117 115 112 112 116 116 113 114 118 119 116 113 113 112 116
357 355 2 333 15 48 49 50 70 61 43 330 285 246 271 324 291 253 195 156 181 195 173 115 106 93 48 22 4 12 297 327 105 178 164 161 150 143 165 180 185 183 171 164 165 167 166 164 158 150 146 141 140 141 141 141 139 135 133 131 132 132 131 134 133 136 139 139 139 137 135 136 140 135 129 125 123 125 127 124 120 118 116 114 112 110 110 114 115 116 119 122 120 116 115 115 119
356 355 355 1 56 35 59 44 135 124 6 261 280 277 229 238 256 217 196 169 187 173 117 59 55 74 88 74 309 357 269 301 260 216 184 191 179 167 177 189 189 179 166 164 166 165 162 154 148 147 145 142 143 145 144 144 144 139 135 135 136 137 140 141 139 139 137 138 139 136 138 142 140 133 129 127 130 131 127 124 121 120 118 116 115 113 113 116 116 118 122 124 123 119 119 120 124
358 3 2 52 86 33 90 72 126 113 238 193 232 283 267 230 197 168 208 221 232 5 81 104 57 12 91 173 223 143 245 285 268 227 214 211 181 174 185 189 187 175 166 168 166 163 159 152 148 148 146 144 147 148 148 148 148 144 139 139 140 141 146 146 142 141 140 141 139 139 141 139 136 132 131 134 135 132 128 127 124 122 121 120 117 116 120 127 126 125 127 128 129 125 124 126 126
6 26 34 59 91 135 109 123 256 265 238 174 171 270 292 200 170 166 204 261 290 340 32 116 116 65 30 266 158 170 214 279 281 222 229 220 195 187 190 187 184 176 168 168 167 164 159 157 152 148 147 147 150 150 150 150 148 144 142 141 142 144 149 149 145 144 143 141 140 143 140 136 135 134 136 139 138 134 132 129 126 125 123 120 116 115 119 129 132 132 135 135 135 131 130 130 126
18 16 28 57 51 37 104 201 225 251 243 178 179 235 241 144 153 158 168 251 316 328 319 144 109 103 263 271 184 214 193 224 284 270 238 220 212 199 189 188 183 176 171 167 168 166 160 158 153 149 149 150 151 151 151 149 145 144 143 142 145 149 153 153 148 146 143 141 144 146 142 138 139 142 143 143 141 137 134 130 130 129 125 122 117 116 119 124 130 135 139 139 137 136 137 137 133
35 33 16 85 46 22 90 256 246 219 238 225 221 218 187 149 154 165 172 196 239 265 206 145 94 106 267 310 197 267 9 248 279 272 233 216 213 197 189 189 181 175 172 168 169 167 162 158 152 150 151 152 152 151 151 148 146 144 143 144 148 154 155 155 149 147 148 149 153 150 143 141 145 148 147 145 144 139 135 133 135 133 128 127 122 120 121 127 131 135 140 142 141 138 138 136 131
43 48 37 83 103 25 33 300 278 231 248 267 247 218 217 170 167 166 171 206 206 214 202 139 114 138 266 291 249 288 320 202 104 238 219 215 209 195 192 189 182 176 172 171 170 166 165 162 154 153 152 152 152 151 150 150 148 144 146 150 152 155 155 152 149 152 156 154 154 151 144 145 149 149 149 148 148 145 142 139 140 139 133 132 131 128 126 131 136 137 141 145 143 137 134 131 128
38 36 131 76 95 21 335 292 274 259 239 257 256 206 227 242 199 172 168 200 200 186 183 109 110 191 199 228 262 295 226 134 133 199 213 217 211 199 197 193 188 179 175 173 171 167 168 166 158 157 154 151 151 150 150 150 146 145 150 152 151 152 149 149 151 155 153 151 152 150 146 150 153 150 151 150 149 150 150 146 144 144 139 135 135 130 124 128 134 137 140 142 139 135 133 130 129
44 354 96 79 70 158 263 249 268 267 252 270 284 223 191 232 211 180 186 217 199 178 103 96 113 216 151 263 264 190 166 141 171 194 204 215 214 205 200 201 193 181 176 171 170 171 170 167 163 162 157 152 151 149 150 149 145 148 150 147 148 146 146 152 153 150 146 149 151 149 150 155 160 158 154 150 149 151 151 150 148 148 142 137 137 129 122 127 133 133 136 140 137 135 134 129 124
81 338 63 90 143 201 214 215 264 269 297 321 266 247 161 161 181 186 199 223 201 235 274 156 211 168 120 284 276 181 165 158 185 186 188 204 211 204 202 205 191 181 177 170 170 172 172 169 165 164 159 154 151 149 150 148 146 149 146 145 148 145 151 156 149 149 149 152 153 151 155 158 166 166 160 154 149 149 149 149 147 148 146 141 141 136 125 128 135 138 140 142 139 137 136 129 117
115 144 80 100 185 174 196 206 274 294 315 274 198 227 147 151 215 200 180 235 190 145 263 217 174 64 139 265 298 260 184 176 180 178 177 190 206 206 204 199 182 177 174 170 172 170 172 171 164 164 163 157 153 151 150 150 153 154 148 148 149 147 154 151 148 156 156 156 158 158 156 158 165 169 167 158 149 148 147 146 145 150 152 146 144 142 132 128 134 142 146 148 144 140 140 133 117
136 146 108 158 181 142 187 222 283 235 267 256 206 181 160 183 224 196 145 217 239 178 246 230 129 117 301 277 289 298 183 176 171 177 181 180 199 203 196 179 173 174 168 169 174 171 174 173 165 166 166 161 157 154 156 159 159 155 151 153 153 152 155 151 152 161 162 161 162 163 162 158 160 164 163 155 149 148 146 145 149 155 153 148 149 146 138 130 131 141 151 156 151 148 150 140 119
148 129 92 89 332 317 206 220 222 181 238 242 199 152 149 269 192 172 164 193 234 197 122 37 104 179 208 206 253 274 178 170 164 181 188 178 190 193 182 165 167 171 166 172 179 177 177 175 169 170 172 167 164 162 164 165 160 158 160 163 162 160 157 156 159 162 167 167 164 166 167 162 161 162 158 154 152 150 149 150 156 159 152 153 156 149 139 135 134 138 149 159 160 158 162 150 124
130 108 69 49 281 286 226 211 154 159 243 234 233 134 128 284 150 168 227 174 224 4 54 314 28 156 178 191 269 226 170 164 157 175 179 166 173 176 172 164 164 168 170 177 183 184 178 177 176 173 173 172 172 170 171 168 163 167 172 170 165 162 157 156 163 164 169 171 167 163 162 166 165 163 159 158 159 156 155 155 163 166 160 162 162 153 144 140 141 142 146 158 166 166 172 162 133
80 81 70 319 230 216 221 203 169 182 252 250 262 177 144 227 219 186 303 67 119 9 25 243 336 120 185 258 321 151 160 158 153 160 158 150 154 159 163 166 167 168 175 177 182 190 181 176 178 171 169 174 172 172 176 170 170 178 178 174 167 166 160 155 166 166 166 170 170 165 166 177 170 168 166 164 166 162 160 161 171 178 173 172 168 164 158 153 154 154 151 157 171 174 178 169 143
67 83 109 257 215 206 196 194 198 186 256 240 221 195 159 182 211 187 28 33 31 8 331 276 313 101 94 78 134 149 157 158 157 153 152 152 154 156 160 169 172 172 177 178 180 190 184 173 173 171 170 174 171 169 175 171 176 183 180 177 172 172 166 158 166 165 164 167 171 177 182 189 181 177 176 175 179 174 173 173 182 193 185 178 178 178 177 189 180 171 167 165 176 179 180 171 152
100 116 157 243 207 214 198 189 208 209 240 218 207 210 188 190 181 152 190 283 9 325 251 300 304 138 121 144 150 156 165 167 168 163 160 163 168 167 164 172 176 178 181 181 181 186 186 176 170 175 175 176 176 172 175 176 179 182 180 179 175 175 169 162 165 166 170 169 168 177 182 189 188 186 183 187 193 187 190 189 193 204 195 183 184 186 190 205 185 174 175 172 176 177 176 169 157
161 139 210 251 212 239 236 197 216 228 219 177 196 213 220 208 151 154 188 192 354 242 231 217 249 213 153 161 161 163 171 175 179 177 174 173 176 176 175 178 180 184 185 183 183 180 184 185 174 177 180 179 181 177 178 181 181 182 181 179 176 174 170 166 168 173 177 170 165 170 173 185 191 191 188 194 200 195 200 202 200 207 200 189 187 185 185 190 174 170 172 167 167 168 170 168 162
173 146 200 237 183 242 255 218 225 235 205 189 173 154 235 220 140 171 155 138 270 249 230 208 224 208 160 163 168 169 173 177 182 185 190 183 175 179 185 186 185 188 186 185 186 179 182 190 181 180 185 182 185 183 179 181 181 183 182 179 178 176 174 175 176 177 178 169 167 171 172 186 197 202 199 197 205 206 207 206 203 206 202 191 186 182 176 176 174 172 166 157 153 157 163 166 168
160 212 221 228 159 232 261 227 225 223 174 175 153 165 208 158 143 183 158 175 231 230 232 216 217 196 158 163 169 174 179 180 182 188 198 194 178 179 189 192 190 189 186 187 186 181 185 189 184 185 187 184 190 188 181 182 183 181 180 179 180 179 180 184 183 179 178 174 173 175 176 186 198 209 210 205 212 216 214 211 206 206 203 193 187 184 178 175 179 178 162 151 147 151 159 165 174
242 266 255 242 185 232 268 239 210 182 154 183 180 192 158 141 213 189 177 213 227 239 249 217 205 150 143 156 169 181 187 186 189 191 197 197 185 181 191 196 195 191 186 188 185 182 188 187 183 187 185 185 191 189 181 182 184 181 180 180 182 182 185 188 187 185 184 182 182 182 181 187 199 209 216 215 216 219 220 219 216 210 203 195 190 190 186 180 180 181 172 158 151 150 161 172 184
220 272 297 264 201 224 249 238 217 176 185 211 172 158 159 181 214 153 199 229 255 300 292 158 142 128 136 154 176 191 193 192 197 196 198 199 195 191 195 201 202 197 187 185 183 182 190 187 182 185 185 183 186 186 182 181 182 182 183 185 183 185 189 187 188 192 193 191 190 191 188 193 205 212 219 220 215 216 220 226 227 216 205 197 193 196 194 185 181 179 179 174 163 161 169 180 195
199 237 278 258 211 232 245 236 226 200 204 204 141 182 192 186 174 150 218 232 277 334 71 104 118 128 141 160 182 196 200 199 199 198 199 200 199 199 201 205 205 203 196 186 181 183 192 189 183 187 187 182 184 187 185 181 183 185 187 191 188 189 194 189 191 198 199 198 197 199 199 202 212 219 226 226 220 220 222 229 233 221 207 200 197 202 200 189 184 178 178 176 168 172 182 196 224
202 209 251 255 262 268 271 250 227 216 204 155 174 216 214 155 156 231 230 207 167 82 82 92 121 147 154 166 188 200 209 208 200 197 198 195 192 195 200 204 204 205 205 193 184 187 192 191 187 191 190 183 186 188 187 185 185 189 193 196 196 197 197 194 199 204 205 206 205 207 209 212 221 227 233 234 231 231 231 234 237 225 210 203 201 203 203 196 189 185 186 189 196 232 264 279 280
212 233 266 258 271 286 289 278 249 207 196 180 190 220 250 48 242 247 239 168 131 103 91 97 139 189 179 176 194 203 216 216 207 197 193 190 185 188 193 199 202 202 204 195 190 193 194 192 190 192 192 187 188 189 190 192 190 191 196 198 203 205 201 200 206 208 209 213 214 216 220 223 229 236 240 242 241 239 238 239 241 229 211 204 204 204 205 204 199 201 207 220 252 284 299 302 292
287 298 304 291 298 304 278 278 270 170 192 198 175 207 336 45 253 225 197 152 139 129 133 160 192 229 208 192 199 207 221 214 205 200 194 192 189 189 189 195 199 198 201 195 194 199 198 196 194 194 194 190 190 192 193 197 196 195 197 200 206 212 211 212 216 217 219 224 226 229 233 234 236 241 244 246 246 243 243 244 243 233 215 206 208 210 209 210 212 216 227 243 266 292 304 300 288
307 320 307 300 341 337 290 275 236 167 187 179 137 359 298 221 231 207 156 148 131 137 161 191 209 229 222 209 207 211 223 211 202 208 210 202 196 195 193 197 197 196 201 196 195 202 202 200 198 197 197 193 192 195 196 197 197 198 202 206 211 218 223 226 227 230 233 237 241 243 246 246 245 246 246 246 246 245 245 245 242 237 222 211 212 216 215 216 221 225 234 248 264 293 307 297 281
304 24 107 299 354 342 297 351 141 146 192 167 138 235 261 233 226 177 150 151 130 153 191 202 212 222 221 214 214 219 223 217 209 215 219 210 203 200 198 201 198 196 199 195 196 203 202 200 200 200 200 197 194 196 198 197 197 201 206 210 215 222 228 232 233 235 241 245 249 251 252 253 251 249 247 244 245 245 244 244 242 240 230 220 219 222 222 223 228 234 242 252 267 291 302 287 269
311 333 60 341 358 293 293 340 116 128 232 193 151 210 252 252 230 166 166 163 152 180 202 207 216 219 222 215 213 224 223 222 225 224 223 217 209 204 200 201 199 197 197 196 198 202 201 198 200 202 201 199 197 198 200 199 203 207 210 213 217 225 231 235 236 239 245 249 252 254 256 255 250 249 250 246 244 243 244 245 245 244 240 229 227 229 232 234 237 242 249 260 274 287 289 269 261
13 323 293 332 14 281 303 306 157 167 258 210 164 217 261 267 239 168 168 170 170 186 197 206 219 219 224 226 212 219 229 228 231 231 228 221 214 208 204 202 200 198 197 200 200 201 202 199 198 201 200 200 200 200 202 204 208 210 213 218 223 231 235 236 239 241 245 249 253 256 257 251 246 249 252 247 241 241 247 248 246 248 249 241 238 239 241 243 244 247 253 264 279 286 278 261 259
352 56 249 289 358 320 318 318 197 174 123 190 221 250 272 275 279 186 172 172 177 186 198 207 218 221 222 232 223 209 216 229 231 230 227 223 218 214 210 207 204 203 203 205 202 201 205 201 198 202 202 202 202 202 204 207 209 210 212 219 226 234 239 241 243 244 244 247 248 253 256 247 244 249 249 245 244 248 250 248 248 251 251 249 249 249 251 250 248 249 253 265 283 283 271 263 262
319 19 351 266 284 312 311 313 306 131 128 198 226 251 255 264 316 205 185 176 176 185 200 208 214 220 221 229 237 220 209 222 229 224 221 221 220 216 214 212 211 210 210 211 210 209 209 204 202 204 203 204 205 204 206 208 209 209 211 218 225 231 238 243 246 245 243 242 241 253 261 245 242 249 247 246 252 253 249 248 253 255 251 248 248 249 255 256 250 250 254 265 279 269 263 268 269
259 306 329 300 277 252 267 282 297 115 168 217 206 243 254 261 289 188 200 185 184 197 199 210 218 217 220 221 233 232 219 229 230 223 220 219 219 216 214 213 214 213 211 212 214 215 213 209 207 205 203 205 207 206 207 207 206 205 205 210 214 219 231 242 247 243 237 238 242 256 263 244 241 249 249 254 256 251 249 251 256 258 250 246 246 247 256 261 253 250 253 259 263 257 260 270 274
208 235 211 264 286 272 260 262 249 153 210 234 202 226 248 254 255 208 201 189 200 220 205 213 227 223 223 221 231 228 225 239 232 223 222 217 215 215 214 212 213 213 211 210 212 214 213 210 208 205 204 206 206 204 204 203 199 196 197 201 206 215 228 240 246 240 232 232 240 254 256 242 245 251 252 257 256 249 248 252 255 255 250 244 246 249 255 264 260 253 251 252 252 252 258 265 269
200 290 237 251 263 277 277 269 264 157 170 248 213 220 246 252 252 213 183 184 209 224 216 217 223 224 218 217 229 222 224 235 215 211 218 214 212 212 211 210 211 210 209 210 210 211 212 210 208 205 203 207 206 201 201 201 194 190 194 199 209 219 226 234 238 236 232 230 234 244 245 240 248 255 252 250 249 248 249 255 257 255 251 246 248 249 250 258 262 255 249 249 248 248 254 258 261
259 266 288 289 237 263 279 274 281 189 166 270 213 212 255 256 255 206 172 188 213 211 208 213 214 218 215 214 227 226 222 208 172 191 200 203 206 205 206 206 207 209 209 209 209 211 212 210 209 206 204 205 206 203 202 204 202 200 206 212 220 226 226 229 235 236 235 235 237 242 243 239 243 249 249 244 244 249 252 258 262 260 256 252 252 250 246 249 252 247 244 245 246 246 248 253 262
243 206 323 298 246 272 282 274 295 206 170 265 204 195 253 256 236 207 197 203 219 211 207 213 208 208 209 208 220 227 223 208 199 194 182 194 199 199 201 201 205 212 212 211 211 212 212 210 209 208 206 206 204 206 208 212 214 214 220 227 230 234 235 233 234 235 231 233 239 242 245 241 236 237 240 239 239 244 250 254 258 261 259 255 253 250 248 247 245 243 243 243 244 243 243 258 274
214 185 190 273 253 282 276 279 347 71 195 233 183 202 266 273 262 235 221 218 238 229 219 225 211 207 213 209 214 222 221 217 213 202 181 187 192 195 199 199 203 208 210 212 211 212 213 212 210 208 208 208 207 210 214 217 221 221 223 233 238 239 242 236 232 233 230 232 237 239 242 241 236 233 231 232 233 238 243 244 247 252 254 255 253 251 252 250 246 242 239 240 246 252 255 266 271
236 196 199 245 252 216 225 271 351 341 301 137 119 7 305 280 259 254 244 231 249 242 223 235 228 212 210 207 214 219 219 219 214 208 191 181 188 193 197 200 201 203 207 211 212 212 212 213 213 211 210 211 212 214 216 219 223 222 220 228 238 243 249 248 241 240 238 237 239 240 241 241 239 235 231 230 231 236 240 239 239 240 242 247 250 252 256 256 252 244 239 246 252 250 248 252 253
289 222 206 224 252 247 236 275 357 6 321 256 144 113 289 293 262 256 276 235 235 223 214 232 230 213 200 205 215 214 213 214 215 216 198 181 185 189 195 200 200 202 207 211 213 212 211 212 213 213 213 213 215 216 216 219 223 224 221 222 228 234 244 250 250 251 254 255 257 255 248 242 241 240 238 237 236 238 242 241 237 234 233 236 242 251 257 259 256 247 245 254 254 249 249 251 250
292 239 203 207 234 253 254 254 123 188 269 275 115 163 255 314 290 259 270 233 239 232 229 238 232 219 214 213 214 208 205 205 210 215 201 184 184 185 193 199 200 205 208 209 212 212 211 212 212 212 214 215 215 215 215 218 220 223 225 226 229 233 243 253 260 265 271 274 276 273 264 255 250 247 244 242 240 238 241 244 241 236 232 231 234 242 251 259 260 254 252 255 255 255 255 254 250
243 248 224 234 240 247 254 225 191 232 259 313 14 130 229 290 270 276 311 230 263 266 243 244 233 225 223 221 219 209 203 198 199 206 201 196 191 190 195 199 201 206 208 208 209 212 212 212 213 213 214 216 215 213 215 217 218 221 225 229 235 243 252 262 270 276 282 284 283 282 278 270 259 253 247 243 241 239 239 242 244 241 237 232 232 237 242 251 257 256 253 251 253 254 253 255 253
244 254 296 312 255 246 250 214 214 268 319 299 313 113 224 266 267 316 22 219 272 265 243 241 231 226 223 222 224 216 205 197 194 198 201 202 198 198 200 201 202 204 207 210 211 212 213 213 214 214 215 217 216 214 216 218 220 222 225 228 236 245 251 257 263 269 277 281 281 282 282 272 260 254 250 246 242 238 236 237 241 244 244 240 237 239 241 243 246 248 248 249 255 258 256 255 252
242 246 338 19 41 40 48 178 185 19 325 251 252 186 221 273 273 314 35 226 258 255 249 243 232 229 225 222 224 218 205 195 196 199 201 204 204 204 202 199 200 202 206 212 213 212 213 214 214 214 216 217 217 217 217 218 220 223 226 230 236 242 245 247 251 256 263 267 268 270 274 272 264 257 252 248 244 239 235 234 237 243 248 247 242 243 244 241 239 241 244 250 255 257 254 251 250
255 359 324 347 12 26 34 82 116 103 269 246 228 198 193 272 275 225 195 214 221 228 250 255 239 231 229 226 224 216 203 194 197 199 202 205 205 203 199 196 197 199 203 208 212 213 212 214 215 216 217 217 218 219 219 221 222 224 228 232 237 241 242 242 244 249 254 257 258 260 265 269 266 261 255 249 244 241 237 235 238 243 247 246 242 243 244 241 238 238 241 245 247 249 250 251 252
104 54 15 342 331 357 14 357 57 187 257 265 246 200 167 235 268 234 233 251 229 213 232 245 237 226 223 222 219 213 202 195 192 195 200 195 190 190 190 194 195 193 197 203 208 211 212 214 216 217 219 219 219 220 221 223 224 226 229 233 237 240 241 241 243 246 250 253 257 258 260 264 265 262 255 249 242 240 239 237 239 242 242 241 239 241 243 242 239 237 237 239 242 246 248 250 251
138 126 98 358 303 333 332 296 275 219 249 250 218 181 171 236 255 243 245 261 246 221 226 237 239 232 224 218 215 208 194 189 189 192 195 186 181 184 187 192 192 191 194 199 204 208 211 213 215 217 221 221 221 221 222 223 224 226 229 231 235 238 240 241 243 247 249 253 256 256 256 259 264 263 256 250 245 240 240 240 242 244 245 244 242 242 242 240 236 233 234 237 239 243 244 246 249
171 169 168 181 199 268 267 266 270 265 267 250 195 215 277 271 271 237 228 247 242 224 236 243 246 246 237 225 215 202 188 188 189 189 189 189 189 189 190 192 192 194 196 198 201 205 208 212 214 217 221 223 222 223 223 224 225 228 229 231 234 236 238 240 243 247 250 253 256 255 256 258 262 264 259 254 251 246 243 243 245 248 249 246 243 242 238 233 232 231 231 235 238 240 240 241 244
190 166 148 168 161 192 236 230 228 255 282 284 228 207 197 200 262 239 224 257 261 234 244 248 254 257 249 237 212 191 188 188 188 190 190 191 191 191 193 194 196 198 196 197 200 202 205 210 213 216 219 221 222 223 224 225 227 229 230 231 233 235 238 240 243 248 251 253 255 256 257 260 264 268 262 255 253 251 248 245 244 244 242 239 236 235 232 230 232 232 232 234 236 236 235 234 235
244 139 104 208 183 182 228 204 191 205 281 277 216 218 215 201 265 276 270 292 284 255 255 252 261 262 234 220 208 191 192 187 184 190 192 191 191 193 193 194 198 200 197 197 199 201 204 209 213 217 219 220 221 223 225 227 229 229 230 231 233 235 236 239 242 248 251 252 254 256 262 267 269 269 264 257 251 250 249 246 244 242 237 231 229 230 232 234 236 237 237 238 236 235 233 233 236
254 120 176 236 166 151 222 283 18 88 251 266 193 235 285 311 289 303 327 302 292 290 287 274 274 263 210 208 207 196 194 189 189 192 190 187 187 193 195 195 197 197 197 200 202 204 206 208 211 215 218 219 221 223 226 228 229 229 230 231 232 234 235 238 242 246 249 249 250 253 255 249 241 240 248 254 253 249 245 240 239 237 232 229 230 232 232 233 237 239 240 240 238 236 237 239 242
136 220 216 215 88 104 139 278 334 41 251 273 203 216 260 279 273 315 335 293 280 281 281 291 294 243 211 217 211 206 200 191 193 191 185 185 184 190 194 195 198 199 200 204 206 207 208 209 211 212 214 218 221 223 226 229 229 230 231 231 233 234 235 238 240 244 246 244 244 242 237 233 228 226 235 248 251 249 244 240 236 233 229 229 230 232 233 233 235 237 237 238 238 238 241 244 247
177 222 189 136 188 273 70 181 237 248 256 284 297 257 242 202 228 284 275 250 254 261 269 283 267 228 218 224 214 211 203 186 187 185 184 188 187 190 191 193 198 201 204 207 208 208 209 210 212 212 215 219 221 223 225 228 230 231 233 234 234 235 236 237 237 239 239 237 240 240 235 234 235 231 229 235 242 244 242 240 240 240 237 234 233 234 235 235 236 236 235 234 236 238 242 246 249
352 351 16 83 189 196 191 180 171 194 243 276 299 294 265 223 211 206 222 229 234 246 254 256 246 230 221 219 208 204 197 190 189 185 187 189 189 193 192 192 195 200 205 207 207 209 210 212 213 213 217 219 220 222 223 226 229 231 233 234 235 236 236 236 235 234 232 234 239 241 239 238 239 237 235 235 239 242 242 240 241 245 246 244 240 238 237 236 234 235 235 235 238 240 241 244 247
355 343 321 317 287 208 256 243 131 155 209 233 272 277 259 246 210 190 214 227 221 223 227 231 237 235 229 216 203 201 198 197 193 186 189 190 189 192 194 195 196 199 203 204 206 209 211 212 214 215 217 217 219 221 222 225 227 229 230 231 234 235 234 234 232 226 227 235 240 241 242 242 242 243 243 242 243 245 245 242 241 244 246 249 248 243 240 236 232 232 234 239 241 240 241 243 244
224 119 351 334 328 344 304 280 320 66 202 193 229 274 266 253 213 198 211 220 220 221 222 229 235 235 234 222 202 200 200 202 198 190 188 186 185 188 190 193 193 195 198 201 206 208 209 213 215 216 217 219 221 222 222 225 225 226 229 230 232 233 232 232 225 216 222 235 238 239 241 242 242 242 242 244 245 246 245 243 241 241 243 247 247 243 240 238 237 235 235 237 240 240 240 240 242